Location: Moonridge Observatory
(39.2268°N, 77.7914°W)
Time: 09:54:24
(UTC-04:00)

Amateur Radio Satellites - All Passes

Search period start: 01 November 2014 09:24
Search period end: 02 November 2014 08:24
Location: Moonridge Observatory, 39.2268°N, 77.7914°W

Satellite Date Start Highest point End Downlink Frequencies (MHz)
Time Altitude Azimuth
ISS 01 Nov 09:50:48 09:53:59 45° 137° (SE) 09:57:10 145.800 FM
UKube-1 01 Nov 10:13:08 10:16:46 25° 96° (E) 10:20:21 145.840 MHz, 145.915 MHz
ZACube-1 01 Nov 10:25:04 10:27:04 13° 91° (E) 10:29:02 437.345 MHz
Sapphire 01 Nov 10:41:46 10:45:54 22° 48° (NE) 10:50:02 437.095 MHz 1200 baud AX-25 AFSK
Oscar 11 01 Nov 10:46:48 10:51:05 61° 101° (E) 10:55:21 145.825 FM, Beacon 2401.500 USB
KITSAT 1 01 Nov 10:57:34 11:05:31 67° 115° (ESE) 11:13:31 435.175 FM
SO-50 01 Nov 10:58:44 11:03:01 46° 116° (ESE) 11:07:25 436.795 FM
PCSat 01 Nov 11:02:53 11:07:46 33° 53° (NE) 11:12:37 145.825 MHz
FUNcube-1 01 Nov 11:06:06 11:10:02 39° 98° (E) 11:13:55 145.950 - 145.970 MHz USB
HO-68 01 Nov 11:06:50 11:13:42 50° 293° (WNW) 11:20:32 435.675 MHz FM
ISS 01 Nov 11:28:02 11:30:48 24° 334° (NNW) 11:33:35 145.800 FM
UOSAT-12 01 Nov 11:40:51 11:42:06 11° 106° (ESE) 11:43:21 437.025 FM, 437.400 FM
UKube-1 01 Nov 11:49:12 11:52:53 27° 291° (WNW) 11:56:32 145.840 MHz, 145.915 MHz
ZACube-1 01 Nov 11:59:43 12:03:43 45° 287° (WNW) 12:07:40 437.345 MHz
Sapphire 01 Nov 12:24:23 12:29:43 58° 246° (WSW) 12:35:01 437.095 MHz 1200 baud AX-25 AFSK
Oscar 11 01 Nov 12:25:09 12:26:44 12° 297° (WNW) 12:28:19 145.825 FM, Beacon 2401.500 USB
SO-50 01 Nov 12:40:19 12:43:48 21° 315° (NW) 12:47:22 436.795 FM
FUNcube-1 01 Nov 12:43:31 12:46:05 16° 294° (WNW) 12:48:38 145.950 - 145.970 MHz USB
PCSat 01 Nov 12:46:17 12:51:09 34° 250° (WSW) 12:55:59 145.825 MHz
KITSAT 1 01 Nov 12:54:33 13:01:30 31° 315° (NW) 13:08:29 435.175 FM
Oscar 16 01 Nov 12:58:00 13:02:09 25° 66° (ENE) 13:06:18 437.025 USB, Beacon 2401.1428
JAS-1B 01 Nov 13:02:10 13:06:52 27° 65° (ENE) 13:11:36 435.800 - 435.900 CW/SSB
ISS 01 Nov 13:07:49 13:08:27 10° 354° (N) 13:09:04 145.800 FM
UOSAT-12 01 Nov 13:16:55 13:21:32 77° 302° (WNW) 13:26:16 437.025 FM, 437.400 FM
AO-Echo 01 Nov 13:24:57 13:28:50 23° 65° (ENE) 13:32:48 ?
Uribyol 2 01 Nov 13:32:57 13:37:00 23° 65° (ENE) 13:41:03 436.500 FM
ITAMSAT 1 01 Nov 13:40:57 13:45:11 26° 66° (ENE) 13:49:27 435.822 SSB
Saudisat 1A 01 Nov 13:45:40 13:48:52 19° 45° (NE) 13:52:03 436.775 MHz
Oscar 19 01 Nov 13:48:47 13:53:54 75° 75° (ENE) 13:59:02 437.125 CW, 437.150 USB
AO-27 01 Nov 14:27:42 14:32:54 72° 74° (ENE) 14:38:08 436.795 MHz FM
Oscar 16 01 Nov 14:36:32 14:41:17 37° 262° (W) 14:46:03 437.025 USB, Beacon 2401.1428
ISS 01 Nov 14:44:42 14:46:20 13° 14° (NNE) 14:47:57 145.800 FM
Gurwin Techsat 1B 01 Nov 14:49:19 14:54:31 59° 73° (ENE) 14:59:45 435.225 FM
JAS-1B 01 Nov 14:52:12 14:57:27 36° 262° (W) 15:02:39 435.800 - 435.900 CW/SSB
TMSAT-1 01 Nov 14:55:05 15:00:10 49° 71° (ENE) 15:05:17 436.925 FM
AO-7 01 Nov 14:58:35 15:04:53 25° 55° (NE) 15:11:12 29.400 - 29.500 MHz
KITSAT 1 01 Nov 14:59:25 15:00:08 10° 343° (NNW) 15:00:50 435.175 FM
UOSAT-12 01 Nov 15:00:36 15:02:30 12° 322° (NW) 15:04:25 437.025 FM, 437.400 FM
AO-Echo 01 Nov 15:02:36 15:07:17 41° 262° (W) 15:12:09 ?
Uribyol 2 01 Nov 15:11:15 15:16:11 42° 261° (W) 15:21:09 436.500 FM
ITAMSAT 1 01 Nov 15:19:39 15:24:28 38° 262° (W) 15:29:19 435.822 SSB
Uosat F 01 Nov 15:19:50 15:21:36 12° 60° (ENE) 15:23:21 435.120 FM
Saudisat 1A 01 Nov 15:24:24 15:28:42 50° 243° (WSW) 15:32:58 436.775 MHz
Oscar 19 01 Nov 15:31:58 15:33:45 12° 270° (W) 15:35:33 437.125 CW, 437.150 USB
JAS-2 01 Nov 16:01:12 16:04:00 13° 53° (NE) 16:06:54 435.800 - 435.900 CW/SSB, 435.910 FM
AO-27 01 Nov 16:10:40 16:12:54 13° 270° (W) 16:15:09 436.795 MHz FM
ISS 01 Nov 16:20:28 16:23:42 44° 33° (NNE) 16:26:54 145.800 FM
Gurwin Techsat 1B 01 Nov 16:31:39 16:34:51 16° 269° (W) 16:38:04 435.225 FM
TMSAT-1 01 Nov 16:36:35 16:40:20 19° 267° (W) 16:44:06 436.925 FM
AO-7 01 Nov 16:48:37 16:56:52 75° 254° (WSW) 17:05:11 29.400 - 29.500 MHz
Uosat F 01 Nov 16:54:37 16:59:38 84° 257° (WSW) 17:04:43 435.120 FM
Hamsat 01 Nov 17:19:48 17:22:56 21° 68° (ENE) 17:26:05 145.90 MHz
OPAL 01 Nov 17:30:31 17:33:29 16° 94° (E) 17:36:27 ?
JAS-2 01 Nov 17:41:18 17:47:33 72° 73° (ENE) 17:54:41 435.800 - 435.900 CW/SSB, 435.910 FM
ISS 01 Nov 17:57:44 18:00:09 19° 229° (SW) 18:02:34 145.800 FM
AO-7 01 Nov 18:47:48 18:50:53 12° 272° (W) 18:54:00 29.400 - 29.500 MHz
SO-67 01 Nov 18:52:10 18:54:58 24° 71° (ENE) 18:57:48 435.3500 MHz FM
KITSAT 1 01 Nov 18:52:18 18:59:09 29° 44° (NE) 19:05:57 435.175 FM
Hamsat 01 Nov 18:55:02 18:58:42 29° 264° (W) 19:02:23 145.90 MHz
OPAL 01 Nov 19:07:51 19:12:41 54° 290° (WNW) 19:17:29 ?
RS-15 01 Nov 19:09:39 19:13:57 13° 97° (E) 19:18:13 29.354 - 29.394 USB, Beacon 29.352 USB
STRAND 1 01 Nov 19:27:37 19:32:16 33° 97° (E) 19:36:52 ?
JAS-2 01 Nov 19:29:14 19:33:25 18° 273° (W) 19:37:56 435.800 - 435.900 CW/SSB, 435.910 FM
SO-50 01 Nov 19:31:10 19:35:36 34° 51° (NE) 19:40:04 436.795 FM
HO-68 01 Nov 19:48:22 19:53:30 22° 58° (ENE) 19:58:39 435.675 MHz FM
UOSAT-12 01 Nov 20:09:54 20:11:16 11° 37° (NE) 20:12:37 437.025 FM, 437.400 FM
Oscar 10/S400 01 Nov 20:11:42 20:44:38 57° 197° (SSW) 05:05:37 145.825 - 145.975 CW/USB, Beacon 145.810 USB
AO-40 01 Nov 20:20:35 22:33:19 33° 209° (SSW) 02:07:26 Beacon 2401.320
SO-67 01 Nov 20:25:40 20:27:55 16° 266° (W) 20:30:10 435.3500 MHz FM
KITSAT 1 01 Nov 20:47:12 20:55:14 72° 245° (WSW) 21:03:14 435.175 FM
STRAND 1 01 Nov 21:06:59 21:11:19 28° 293° (WNW) 21:15:37 ?
UKube-1 01 Nov 21:08:00 21:11:12 20° 66° (ENE) 21:14:25 145.840 MHz, 145.915 MHz
MaSat-1 01 Nov 21:08:19 21:10:09 13° 106° (ESE) 21:11:55 437.345 MHz
SO-50 01 Nov 21:11:53 21:16:04 29° 247° (WSW) 21:20:16 436.795 FM
RS-15 01 Nov 21:13:15 21:24:09 71° 116° (ESE) 21:34:59 29.354 - 29.394 USB, Beacon 29.352 USB
ZACube-1 01 Nov 21:21:35 21:23:04 12° 63° (ENE) 21:24:33 437.345 MHz
HO-68 01 Nov 21:33:19 21:40:28 74° 256° (WSW) 21:47:41 435.675 MHz FM
Oscar 11 01 Nov 21:40:45 21:44:48 41° 72° (ENE) 21:48:51 145.825 FM, Beacon 2401.500 USB
UOSAT-12 01 Nov 21:47:36 21:52:19 67° 57° (ENE) 21:56:55 437.025 FM, 437.400 FM
FUNcube-1 01 Nov 22:01:18 22:05:14 30° 70° (ENE) 22:09:06 145.950 - 145.970 MHz USB
MaSat-1 01 Nov 22:41:37 22:45:15 40° 297° (WNW) 22:48:34 437.345 MHz
UKube-1 01 Nov 22:43:10 22:47:08 34° 262° (W) 22:51:08 145.840 MHz, 145.915 MHz
KITSAT 1 01 Nov 22:46:46 22:49:11 12° 262° (W) 22:51:35 435.175 FM
ZACube-1 01 Nov 22:54:23 22:58:54 69° 259° (W) 23:03:20 437.345 MHz
Oscar 11 01 Nov 23:18:30 23:21:09 16° 267° (W) 23:23:48 145.825 FM, Beacon 2401.500 USB
RS-15 01 Nov 23:27:32 23:37:21 36° 320° (NW) 23:47:15 29.354 - 29.394 USB, Beacon 29.352 USB
HO-68 01 Nov 23:27:46 23:29:15 11° 273° (W) 23:30:43 435.675 MHz FM
UOSAT-12 01 Nov 23:29:47 23:31:51 13° 253° (WSW) 23:33:53 437.025 FM, 437.400 FM
FUNcube-1 01 Nov 23:37:57 23:41:34 24° 265° (W) 23:45:10 145.950 - 145.970 MHz USB
Sapphire 02 Nov 01:23:16 01:27:14 21° 106° (ESE) 01:31:12 437.095 MHz 1200 baud AX-25 AFSK
PCSat 02 Nov 01:43:39 01:48:31 35° 110° (ESE) 01:53:24 145.825 MHz
RS-15 02 Nov 01:47:39 01:54:22 17° 354° (N) 01:01:10 29.354 - 29.394 USB, Beacon 29.352 USB
Oscar 19 02 Nov 01:01:57 01:06:21 28° 96° (E) 01:10:43 437.125 CW, 437.150 USB
JAS-1B 02 Nov 01:33:57 01:41:16 62° 102° (ESE) 01:49:57 435.800 - 435.900 CW/SSB
AO-27 02 Nov 01:42:24 01:46:52 28° 96° (E) 01:51:16 436.795 MHz FM
Oscar 16 02 Nov 01:48:46 01:53:56 84° 103° (ESE) 01:59:03 437.025 USB, Beacon 2401.1428
Sapphire 02 Nov 02:05:00 02:10:15 51° 303° (WNW) 02:15:32 437.095 MHz 1200 baud AX-25 AFSK
Gurwin Techsat 1B 02 Nov 02:07:11 02:11:35 26° 95° (E) 02:15:56 435.225 FM
AO-Echo 02 Nov 02:10:27 02:15:47 72° 102° (ESE) 02:21:00 ?
TMSAT-1 02 Nov 02:12:45 02:16:45 21° 93° (E) 02:20:43 436.925 FM
Uribyol 2 02 Nov 02:24:44 02:29:57 76° 103° (ESE) 02:35:07 436.500 FM
PCSat 02 Nov 02:27:06 02:31:55 32° 307° (NW) 02:36:46 145.825 MHz
ITAMSAT 1 02 Nov 02:33:08 02:38:23 85° 104° (ESE) 02:43:34 435.822 SSB
Oscar 19 02 Nov 02:41:08 02:45:39 32° 292° (WNW) 02:50:09 437.125 CW, 437.150 USB
RS-15 02 Nov 03:03:27 03:12:21 26° 30° (NNE) 03:21:26 29.354 - 29.394 USB, Beacon 29.352 USB
AO-27 02 Nov 03:21:41 03:26:22 34° 292° (WNW) 03:31:00 436.795 MHz FM
PANSAT 02 Nov 03:22:09 03:24:22 15° 172° (S) 03:26:35 not established
JAS-1B 02 Nov 03:25:34 03:31:30 28° 295° (WNW) 03:38:16 435.800 - 435.900 CW/SSB
Oscar 16 02 Nov 03:30:40 03:32:32 12° 300° (WNW) 03:34:24 437.025 USB, Beacon 2401.1428
OPAL 02 Nov 03:43:52 03:48:08 28° 65° (ENE) 03:52:22 ?
Gurwin Techsat 1B 02 Nov 03:46:44 03:51:36 38° 291° (WNW) 03:56:26 435.225 FM
AO-Echo 02 Nov 03:50:58 03:53:52 15° 299° (WNW) 03:56:45 ?
AO-7 02 Nov 03:51:36 03:59:20 41° 99° (E) 04:07:03 29.400 - 29.500 MHz
TMSAT-1 02 Nov 03:51:49 03:56:51 45° 289° (WNW) 04:01:51 436.925 FM
JAS-2 02 Nov 03:54:51 03:58:06 13° 84° (E) 04:01:18 435.800 - 435.900 CW/SSB, 435.910 FM
Uosat F 02 Nov 04:03:47 04:08:18 32° 97° (E) 04:12:47 435.120 FM
Uribyol 2 02 Nov 04:06:15 04:08:45 14° 299° (WNW) 04:11:14 436.500 FM
ITAMSAT 1 02 Nov 04:15:07 04:17:07 12° 300° (WNW) 04:19:06 435.822 SSB
Saudisat 1A 02 Nov 04:29:27 04:33:41 52° 117° (ESE) 04:37:58 436.775 MHz
PANSAT 02 Nov 05:01:29 05:03:51 16° 185° (S) 05:06:12 not established
RS-15 02 Nov 05:15:39 05:26:53 76° 57° (ENE) 05:38:37 29.354 - 29.394 USB, Beacon 29.352 USB
OPAL 02 Nov 05:22:16 05:26:52 34° 260° (W) 05:31:27 ?
JAS-2 02 Nov 05:36:22 05:44:17 75° 102° (ESE) 05:51:47 435.800 - 435.900 CW/SSB, 435.910 FM
Hamsat 02 Nov 05:40:57 05:45:04 48° 99° (E) 05:49:11 145.90 MHz
STRAND 1 02 Nov 05:42:25 05:47:15 44° 71° (ENE) 05:52:08 ?
Uosat F 02 Nov 05:42:42 05:46:57 28° 293° (WNW) 05:51:11 435.120 FM
AO-7 02 Nov 05:44:21 05:52:06 45° 297° (WNW) 05:59:51 29.400 - 29.500 MHz
MaSat-1 02 Nov 05:53:17 05:53:34 10° 54° (NE) 05:53:50 437.345 MHz
Saudisat 1A 02 Nov 06:10:28 06:13:33 18° 315° (NW) 06:16:39 436.775 MHz
SO-67 02 Nov 06:48:37 06:51:45 32° 97° (E) 06:54:52 435.3500 MHz FM
Hamsat 02 Nov 07:18:22 07:20:35 14° 295° (WNW) 07:22:49 145.90 MHz
JAS-2 02 Nov 07:22:33 07:28:27 24° 300° (WNW) 07:34:13 435.800 - 435.900 CW/SSB, 435.910 FM
STRAND 1 02 Nov 07:22:47 07:26:37 21° 266° (W) 07:30:28 ?
MaSat-1 02 Nov 07:27:15 07:28:51 16° 253° (WSW) 07:30:25 437.345 MHz
RS-15 02 Nov 07:29:16 07:38:13 29° 256° (WSW) 07:47:30 29.354 - 29.394 USB, Beacon 29.352 USB
ISS 02 Nov 08:02:10 08:04:54 24° 133° (SE) 08:07:39 145.800 FM
HO-68 02 Nov 08:03:19 08:08:44 23° 93° (E) 08:14:06 435.675 MHz FM
